Location: Gellin
(53.4498°N, 14.3207°E)
Time: 02:06:28
(UTC+00:00)

ERS-1 Rocket - Pass Details

Date: 03 March 2021
Orbit: 752 x 758 km, 98.4° (Epoch: 11 April)

Event Time Altitude Azimuth Distance (km) Brightness Sun altitude
Exits shadow 20:04:10 38° 11° (N) 1,147 4.0 -29.3°
Drops below altitude 10° 20:07:27 10° 351° (N) 2,301 5.9 -29.7°
Sets 20:09:47 0° 347° (NNW) 3,230 6.9 -30.0°
